Time,TemperatureF,DewpointF,PressureIn,WindDirection,WindDirectionDegrees,WindSpeedMPH,WindSpeedGustMPH,Humidity,HourlyPrecipIn,Conditions,Clouds,dailyrainin,SoftwareType,DateUTC
2013-05-18 00:01:00,57.1,54.5,29.97,SE,130,9.2,9.2,91,0.00,RA,,0.00,WeatherDisplay:10.37,2013-05-18 05:01:00,
2013-05-18 00:06:00,57.1,54.2,29.97,ESE,111,6.9,6.9,90,0.00,RA,,0.00,WeatherDisplay:10.37,2013-05-18 05:06:00,
2013-05-18 00:11:00,57.2,54.3,29.97,ESE,106,10.4,10.4,90,0.00,CLR,,0.00,WeatherDisplay:10.37,2013-05-18 05:11:00,
2013-05-18 00:16:00,57.2,54.3,29.96,ESE,107,0.0,0.0,90,0.00,CLR,,0.00,WeatherDisplay:10.37,2013-05-18 05:16:00,
2013-05-18 00:21:00,57.2,54.3,29.96,East,98,15.0,15.0,90,0.00,CLR,,0.00,WeatherDisplay:10.37,2013-05-18 05:21:00,
2013-05-18 00:26:00,57.2,54.3,29.96,SE,134,5.8,5.8,90,0.00,CLR,,0.00,WeatherDisplay:10.37,2013-05-18 05:26:00,
2013-05-18 00:31:00,57.1,54.2,29.95,ESE,117,11.5,11.5,90,0.00,CLR,,0.00,WeatherDisplay:10.37,2013-05-18 05:31:00,
2013-05-18 00:36:00,57.1,54.2,29.95,ESE,108,4.6,4.6,90,0.00,CLR,,0.00,WeatherDisplay:10.37,2013-05-18 05:36:00,
2013-05-18 00:41:00,57.0,54.1,29.95,SE,132,0.0,1.6,90,0.00,CLR,,0.00,WeatherDisplay:10.37,2013-05-18 05:41:00,
2013-05-18 00:46:00,56.9,54.0,29.95,East,96,4.6,4.6,90,0.00,CLR,,0.00,WeatherDisplay:10.37,2013-05-18 05:46:00,
2013-05-18 00:51:00,56.9,54.0,29.95,SE,127,6.9,6.9,90,0.00,CLR,,0.00,WeatherDisplay:10.37,2013-05-18 05:51:00,
2013-05-18 00:56:00,56.8,53.6,29.95,SE,126,3.5,3.5,89,0.00,CLR,,0.00,WeatherDisplay:10.37,2013-05-18 05:56:00,
2013-05-18 01:01:00,56.8,53.9,29.95,ESE,121,11.5,11.5,90,0.00,CLR,,0.00,WeatherDisplay:10.37,2013-05-18 06:01:00,
2013-05-18 01:06:00,56.7,53.5,29.95,East,95,5.0,5.0,89,0.00,CLR,,0.00,WeatherDisplay:10.37,2013-05-18 06:06:00,
2013-05-18 01:11:00,56.7,53.8,29.95,ESE,111,2.3,0.0,90,0.00,CLR,,0.00,WeatherDisplay:10.37,2013-05-18 06:11:00,
2013-05-18 01:16:00,56.7,53.8,29.95,ESE,109,5.8,5.8,90,0.00,CLR,,0.00,WeatherDisplay:10.37,2013-05-18 06:16:00,
2013-05-18 01:21:00,56.7,53.8,29.94,ESE,115,0.0,1.2,90,0.00,CLR,,0.00,WeatherDisplay:10.37,2013-05-18 06:21:00,
2013-05-18 01:26:00,56.6,53.7,29.94,SE,135,3.5,0.0,90,0.00,CLR,,0.00,WeatherDisplay:10.37,2013-05-18 06:26:00,
2013-05-18 01:31:00,56.6,53.7,29.94,ESE,118,10.4,10.4,90,0.00,CLR,,0.00,WeatherDisplay:10.37,2013-05-18 06:31:00,
2013-05-18 01:36:00,56.6,53.7,29.94,ESE,110,3.5,3.5,90,0.00,CLR,,0.00,WeatherDisplay:10.37,2013-05-18 06:36:00,
2013-05-18 01:41:00,56.6,53.7,29.94,East,99,10.4,10.4,90,0.00,CLR,,0.00,WeatherDisplay:10.37,2013-05-18 06:41:00,
2013-05-18 01:46:00,56.6,53.7,29.94,East,101,5.8,0.0,90,0.00,CLR,,0.00,WeatherDisplay:10.37,2013-05-18 06:46:00,
2013-05-18 01:51:00,56.6,53.7,29.94,ESE,111,12.7,12.7,90,0.00,CLR,,0.00,WeatherDisplay:10.37,2013-05-18 06:51:00,
2013-05-18 01:56:00,56.6,53.7,29.94,South,169,9.2,9.2,90,0.00,CLR,,0.00,WeatherDisplay:10.37,2013-05-18 06:56:00,
2013-05-18 02:01:00,56.5,53.6,29.94,ESE,111,11.5,11.5,90,0.00,CLR,,0.00,WeatherDisplay:10.37,2013-05-18 07:01:00,
2013-05-18 02:06:00,56.5,53.6,29.94,ESE,111,0.0,2.0,90,0.00,CLR,,0.00,WeatherDisplay:10.37,2013-05-18 07:06:00,
2013-05-18 02:11:00,56.6,53.7,29.94,SE,129,9.2,9.2,90,0.00,CLR,,0.00,WeatherDisplay:10.37,2013-05-18 07:11:00,
2013-05-18 02:16:00,56.6,53.7,29.94,ESE,106,9.2,9.2,90,0.00,CLR,,0.00,WeatherDisplay:10.37,2013-05-18 07:16:00,
2013-05-18 02:21:00,56.6,53.4,29.94,ESE,104,0.0,0.0,89,0.00,CLR,,0.00,WeatherDisplay:10.37,2013-05-18 07:21:00,
2013-05-18 02:26:00,56.7,53.5,29.94,SE,126,8.1,8.1,89,0.00,CLR,,0.00,WeatherDisplay:10.37,2013-05-18 07:26:00,
2013-05-18 02:31:00,56.7,53.5,29.94,SE,126,0.0,0.0,89,0.00,CLR,,0.00,WeatherDisplay:10.37,2013-05-18 07:31:00,
2013-05-18 02:36:00,56.7,53.5,29.94,SE,135,0.0,0.3,89,0.00,CLR,,0.00,WeatherDisplay:10.37,2013-05-18 07:36:00,
2013-05-18 02:41:00,56.7,53.5,29.93,ESE,112,5.8,5.8,89,0.00,CLR,,0.00,WeatherDisplay:10.37,2013-05-18 07:41:00,
2013-05-18 02:47:00,56.7,53.5,29.94,South,175,3.5,3.5,89,0.00,CLR,,0.00,WeatherDisplay:10.37,2013-05-18 07:47:00,
2013-05-18 02:52:00,56.7,53.5,29.93,SSE,165,9.2,9.2,89,0.00,CLR,,0.00,WeatherDisplay:10.37,2013-05-18 07:52:00,
2013-05-18 02:57:00,56.7,53.5,29.94,SE,134,0.0,0.0,89,0.00,CLR,,0.00,WeatherDisplay:10.37,2013-05-18 07:57:00,
2013-05-18 03:02:00,56.7,53.5,29.94,SE,139,4.6,4.6,89,0.00,CLR,,0.00,WeatherDisplay:10.37,2013-05-18 08:02:00,
2013-05-18 03:07:00,56.6,53.4,29.93,ESE,122,4.6,0.0,89,0.00,CLR,,0.00,WeatherDisplay:10.37,2013-05-18 08:07:00,
2013-05-18 03:12:00,56.6,53.4,29.94,ESE,117,4.6,4.6,89,0.00,CLR,,0.00,WeatherDisplay:10.37,2013-05-18 08:12:00,
2013-05-18 03:17:00,56.6,53.4,29.93,ESE,108,0.0,1.3,89,0.00,CLR,,0.00,WeatherDisplay:10.37,2013-05-18 08:17:00,
2013-05-18 03:22:00,56.6,53.4,29.93,ESE,121,0.0,2.5,89,0.00,CLR,,0.00,WeatherDisplay:10.37,2013-05-18 08:22:00,
2013-05-18 03:27:00,56.6,53.4,29.93,ESE,102,0.0,3.1,89,0.00,CLR,,0.00,WeatherDisplay:10.37,2013-05-18 08:27:00,
2013-05-18 03:32:00,56.6,53.4,29.93,South,172,0.0,0.0,89,0.00,CLR,,0.00,WeatherDisplay:10.37,2013-05-18 08:32:00,
2013-05-18 03:37:00,56.7,53.5,29.93,ESE,110,5.8,5.8,89,0.00,CLR,,0.00,WeatherDisplay:10.37,2013-05-18 08:37:00,
2013-05-18 03:42:00,56.7,53.5,29.92,SSE,167,0.0,0.0,89,0.00,CLR,,0.00,WeatherDisplay:10.37,2013-05-18 08:42:00,
2013-05-18 03:47:00,56.7,53.5,29.92,South,172,8.0,8.0,89,0.00,CLR,,0.00,WeatherDisplay:10.37,2013-05-18 08:47:00,
2013-05-18 03:52:00,56.8,53.6,29.92,SE,143,9.2,9.2,89,0.00,CLR,,0.00,WeatherDisplay:10.37,2013-05-18 08:52:00,
2013-05-18 03:57:00,56.8,53.6,29.92,SSE,150,8.1,8.1,89,0.00,CLR,,0.00,WeatherDisplay:10.37,2013-05-18 08:57:00,
2013-05-18 04:02:00,56.9,53.7,29.92,South,188,0.0,3.7,89,0.00,CLR,,0.00,WeatherDisplay:10.37,2013-05-18 09:02:00,
2013-05-18 04:07:00,56.9,53.4,29.92,SE,130,4.6,4.6,88,0.00,CLR,,0.00,WeatherDisplay:10.37,2013-05-18 09:07:00,
2013-05-18 04:12:00,57.0,53.5,29.92,ESE,102,4.6,4.6,88,0.00,CLR,,0.00,WeatherDisplay:10.37,2013-05-18 09:12:00,
2013-05-18 04:17:00,57.1,53.6,29.91,SSE,157,11.5,11.5,88,0.00,CLR,,0.00,WeatherDisplay:10.37,2013-05-18 09:17:00,
2013-05-18 04:22:00,57.1,53.6,29.92,SSE,148,0.0,0.0,88,0.00,CLR,,0.00,WeatherDisplay:10.37,2013-05-18 09:22:00,
2013-05-18 04:27:00,57.1,53.6,29.91,SSE,164,11.5,11.5,88,0.00,CLR,,0.00,WeatherDisplay:10.37,2013-05-18 09:27:00,
2013-05-18 04:32:00,57.0,53.5,29.92,South,171,6.9,6.9,88,0.01,RA,,0.01,WeatherDisplay:10.37,2013-05-18 09:32:00,
2013-05-18 04:37:00,56.9,53.7,29.92,SSE,161,5.8,5.8,89,0.01,RA,,0.01,WeatherDisplay:10.37,2013-05-18 09:37:00,
2013-05-18 04:42:00,56.8,53.6,29.92,SSE,165,0.0,0.0,89,0.02,RA,,0.02,WeatherDisplay:10.37,2013-05-18 09:42:00,
2013-05-18 04:47:00,56.8,53.6,29.92,SSE,153,0.0,0.0,89,0.02,RA,,0.02,WeatherDisplay:10.37,2013-05-18 09:47:00,
2013-05-18 04:52:00,56.7,53.5,29.92,SE,136,2.3,2.3,89,0.02,CLR,,0.02,WeatherDisplay:10.37,2013-05-18 09:52:00,
2013-05-18 04:57:00,56.7,53.8,29.92,SE,130,0.0,0.0,90,0.02,CLR,,0.02,WeatherDisplay:10.37,2013-05-18 09:57:00,
2013-05-18 05:02:00,56.7,53.8,29.92,SE,130,0.0,0.0,90,0.02,CLR,,0.02,WeatherDisplay:10.37,2013-05-18 10:02:00,
2013-05-18 05:07:00,56.7,53.8,29.93,SE,130,0.0,0.0,90,0.02,CLR,,0.02,WeatherDisplay:10.37,2013-05-18 10:07:00,
2013-05-18 05:12:00,56.7,53.8,29.93,SE,130,0.0,0.0,90,0.02,CLR,,0.02,WeatherDisplay:10.37,2013-05-18 10:12:00,
2013-05-18 05:17:00,56.7,53.8,29.93,SE,130,0.0,0.0,90,0.02,CLR,,0.02,WeatherDisplay:10.37,2013-05-18 10:17:00,
2013-05-18 05:22:00,56.7,53.8,29.93,SE,129,0.0,0.0,90,0.02,CLR,,0.02,WeatherDisplay:10.37,2013-05-18 10:22:00,
2013-05-18 05:27:00,56.6,53.7,29.94,SE,130,0.0,0.0,90,0.02,CLR,,0.02,WeatherDisplay:10.37,2013-05-18 10:27:00,
2013-05-18 05:32:00,56.5,53.6,29.94,SE,129,0.0,0.0,90,0.01,CLR,,0.02,WeatherDisplay:10.37,2013-05-18 10:32:00,
2013-05-18 05:37:00,56.5,53.6,29.94,SE,130,0.0,0.0,90,0.01,CLR,,0.02,WeatherDisplay:10.37,2013-05-18 10:37:00,
2013-05-18 05:42:00,56.4,53.5,29.95,SE,129,0.0,0.0,90,0.00,CLR,,0.02,WeatherDisplay:10.37,2013-05-18 10:42:00,
2013-05-18 05:47:00,56.4,53.5,29.95,SE,130,0.0,0.0,90,0.00,CLR,,0.02,WeatherDisplay:10.37,2013-05-18 10:47:00,
2013-05-18 05:52:00,56.3,53.7,29.96,ESE,121,0.0,0.0,91,0.01,RA,,0.03,WeatherDisplay:10.37,2013-05-18 10:52:00,
2013-05-18 05:57:00,56.2,53.6,29.96,ESE,121,0.0,0.0,91,0.01,RA,,0.03,WeatherDisplay:10.37,2013-05-18 10:57:00,
2013-05-18 06:02:00,56.1,53.5,29.96,ESE,121,0.0,0.0,91,0.01,,,0.03,WeatherDisplay:10.37,2013-05-18 11:02:00,
2013-05-18 06:07:00,56.0,53.4,29.96,ESE,121,0.0,0.0,91,0.01,CLR,,0.04,WeatherDisplay:10.37,2013-05-18 11:07:00,
2013-05-18 06:12:00,55.9,53.3,29.96,ESE,121,0.0,0.0,91,0.05,RA,,0.07,WeatherDisplay:10.37,2013-05-18 11:12:00,
2013-05-18 06:17:00,55.9,53.3,29.96,ESE,123,0.0,0.0,91,0.08,RA,,0.10,WeatherDisplay:10.37,2013-05-18 11:17:00,
2013-05-18 06:22:00,55.9,53.3,29.97,ESE,121,0.0,0.0,91,0.15,RA,,0.17,WeatherDisplay:10.37,2013-05-18 11:22:00,
2013-05-18 06:27:00,55.9,53.3,29.96,ESE,110,0.0,0.0,91,0.20,RA,,0.22,WeatherDisplay:10.37,2013-05-18 11:27:00,
2013-05-18 06:32:00,55.8,53.2,29.96,East,92,0.0,0.0,91,0.25,RA,,0.27,WeatherDisplay:10.37,2013-05-18 11:32:00,
2013-05-18 06:37:00,55.8,53.5,29.97,East,91,0.0,0.0,92,0.29,RA,,0.32,WeatherDisplay:10.37,2013-05-18 11:37:00,
2013-05-18 06:42:00,55.7,53.4,29.96,ENE,67,0.0,0.0,92,0.35,RA,,0.37,WeatherDisplay:10.37,2013-05-18 11:42:00,
2013-05-18 06:47:00,55.6,53.3,29.97,ENE,71,0.0,0.0,92,0.39,RA,,0.42,WeatherDisplay:10.37,2013-05-18 11:47:00,
2013-05-18 06:52:00,55.5,53.2,29.96,ESE,107,3.5,3.5,92,0.42,RA,,0.46,WeatherDisplay:10.37,2013-05-18 11:52:00,
2013-05-18 06:57:00,55.5,53.2,29.96,East,96,9.2,9.2,92,0.46,RA,,0.49,WeatherDisplay:10.37,2013-05-18 11:57:00,
2013-05-18 07:02:00,55.6,53.3,29.96,East,88,11.5,11.5,92,0.49,RA,,0.52,WeatherDisplay:10.37,2013-05-18 12:02:00,
2013-05-18 07:07:00,55.6,53.3,29.96,East,95,4.6,0.0,92,0.52,RA,,0.55,WeatherDisplay:10.37,2013-05-18 12:07:00,
2013-05-18 07:12:00,55.6,53.3,29.96,East,85,4.6,4.6,92,0.50,RA,,0.57,WeatherDisplay:10.37,2013-05-18 12:12:00,
2013-05-18 07:17:00,55.7,53.4,29.98,North,360,5.0,5.0,92,0.49,RA,,0.59,WeatherDisplay:10.37,2013-05-18 12:17:00,
2013-05-18 07:22:00,55.3,53.0,29.99,NNE,19,6.9,6.9,92,0.43,RA,,0.61,WeatherDisplay:10.37,2013-05-18 12:22:00,
2013-05-18 07:27:00,55.0,52.7,29.99,North,360,3.5,0.0,92,0.40,RA,,0.62,WeatherDisplay:10.37,2013-05-18 12:27:00,
2013-05-18 07:32:00,54.8,52.5,29.99,NE,46,6.9,6.9,92,0.36,RA,,0.63,WeatherDisplay:10.37,2013-05-18 12:32:00,
2013-05-18 07:37:00,54.7,52.4,29.99,NE,45,4.6,4.6,92,0.33,RA,,0.64,WeatherDisplay:10.37,2013-05-18 12:37:00,
2013-05-18 07:42:00,54.7,52.4,30.00,NNE,17,0.0,0.0,92,0.27,RA,,0.64,WeatherDisplay:10.37,2013-05-18 12:42:00,
2013-05-18 07:47:00,54.6,52.3,30.00,NE,52,2.3,2.3,92,0.24,RA,,0.65,WeatherDisplay:10.37,2013-05-18 12:47:00,
2013-05-18 07:52:00,54.5,52.2,29.99,ESE,102,6.9,6.9,92,0.20,RA,,0.65,WeatherDisplay:10.37,2013-05-18 12:52:00,
2013-05-18 07:57:00,54.5,52.2,29.99,ESE,105,8.1,8.1,92,0.16,CLR,,0.65,WeatherDisplay:10.37,2013-05-18 12:57:00,
2013-05-18 08:02:00,54.5,52.2,30.00,East,90,1.2,1.4,92,0.14,RA,,0.66,WeatherDisplay:10.37,2013-05-18 13:02:00,
2013-05-18 08:07:00,54.5,52.2,30.01,East,94,0.0,0.0,92,0.11,RA,,0.66,WeatherDisplay:10.37,2013-05-18 13:07:00,
2013-05-18 08:12:00,54.5,52.2,30.02,East,94,1.2,0.0,92,0.09,CLR,,0.66,WeatherDisplay:10.37,2013-05-18 13:12:00,
2013-05-18 08:17:00,54.5,52.2,30.01,ESE,115,4.6,4.6,92,0.08,RA,,0.67,WeatherDisplay:10.37,2013-05-18 13:17:00,
2013-05-18 08:25:00,54.5,52.5,30.01,ESE,109,2.0,5.0,93,0.00,RA,,0.67,WeatherDisplay:10.37,2013-05-18 13:25:00,
2013-05-18 08:33:00,54.4,52.4,29.98,ESE,107,16.1,16.1,93,0.05,RA,,0.68,WeatherDisplay:10.37,2013-05-18 13:33:00,
2013-05-18 08:38:00,54.5,52.5,29.97,East,101,12.7,12.7,93,0.05,RA,,0.69,WeatherDisplay:10.37,2013-05-18 13:38:00,
2013-05-18 08:43:00,54.7,52.7,29.97,SE,129,10.4,10.4,93,0.06,RA,,0.70,WeatherDisplay:10.37,2013-05-18 13:43:00,
2013-05-18 08:48:00,55.0,53.0,29.96,SSE,154,11.5,11.5,93,0.05,RA,,0.70,WeatherDisplay:10.37,2013-05-18 13:48:00,
2013-05-18 08:54:00,55.2,53.2,29.96,SE,130,10.4,10.4,93,0.06,RA,,0.71,WeatherDisplay:10.37,2013-05-18 13:54:00,
2013-05-18 08:59:00,55.5,53.5,29.96,ESE,114,11.5,11.5,93,0.06,RA,,0.71,WeatherDisplay:10.37,2013-05-18 13:59:00,
2013-05-18 09:04:00,55.6,53.6,29.96,East,89,5.8,5.8,93,0.06,RA,,0.72,WeatherDisplay:10.37,2013-05-18 14:04:00,
2013-05-18 09:09:00,55.8,53.8,29.97,ESE,119,11.5,11.5,93,0.06,RA,,0.72,WeatherDisplay:10.37,2013-05-18 14:09:00,
2013-05-18 09:14:00,56.0,54.0,29.96,ESE,104,10.4,10.4,93,0.07,RA,,0.73,WeatherDisplay:10.37,2013-05-18 14:14:00,
2013-05-18 09:19:00,56.2,54.2,29.96,SE,140,10.4,10.4,93,0.06,RA,,0.73,WeatherDisplay:10.37,2013-05-18 14:19:00,
2013-05-18 09:24:00,56.3,54.3,29.97,SE,130,6.9,6.9,93,0.06,,,0.73,WeatherDisplay:10.37,2013-05-18 14:24:00,
2013-05-18 09:29:00,56.6,54.6,29.99,South,186,0.0,0.4,93,0.06,RA,,0.74,WeatherDisplay:10.37,2013-05-18 14:29:00,
2013-05-18 09:34:00,56.7,54.7,30.01,SSW,211,0.0,0.0,93,0.06,RA,,0.74,WeatherDisplay:10.37,2013-05-18 14:34:00,
2013-05-18 09:39:00,56.8,54.8,30.02,NW,311,0.0,0.1,93,0.05,,,0.74,WeatherDisplay:10.37,2013-05-18 14:39:00,
2013-05-18 09:44:00,56.9,54.9,30.01,NW,311,0.0,0.0,93,0.05,RA,,0.75,WeatherDisplay:10.37,2013-05-18 14:44:00,
2013-05-18 09:49:00,57.0,55.0,29.99,SE,144,0.0,3.2,93,0.05,RA,,0.75,WeatherDisplay:10.37,2013-05-18 14:49:00,
2013-05-18 09:54:00,57.0,55.0,29.99,SSE,163,15.0,15.0,93,0.05,RA,,0.76,WeatherDisplay:10.37,2013-05-18 14:54:00,
2013-05-18 09:59:00,56.9,54.9,29.98,SE,136,12.7,12.7,93,0.05,RA,,0.76,WeatherDisplay:10.37,2013-05-18 14:59:00,
2013-05-18 10:04:00,56.9,54.9,29.98,SSE,160,10.4,10.4,93,0.05,RA,,0.77,WeatherDisplay:10.37,2013-05-18 15:04:00,
2013-05-18 10:09:00,56.8,54.8,29.98,ESE,117,6.0,6.0,93,0.05,RA,,0.77,WeatherDisplay:10.37,2013-05-18 15:09:00,
2013-05-18 10:14:00,56.8,54.8,29.97,SE,132,11.5,11.5,93,0.04,,,0.77,WeatherDisplay:10.37,2013-05-18 15:14:00,
2013-05-18 10:19:00,56.8,54.8,29.97,SE,136,6.9,6.9,93,0.05,RA,,0.78,WeatherDisplay:10.37,2013-05-18 15:19:00,
2013-05-18 10:24:00,56.8,54.8,29.96,SE,136,11.5,11.5,93,0.05,RA,,0.78,WeatherDisplay:10.37,2013-05-18 15:24:00,
2013-05-18 10:29:00,56.9,54.9,29.96,SE,136,10.4,10.4,93,0.05,RA,,0.79,WeatherDisplay:10.37,2013-05-18 15:29:00,
2013-05-18 10:34:00,57.2,55.2,29.96,ESE,108,5.8,5.8,93,0.05,RA,,0.79,WeatherDisplay:10.37,2013-05-18 15:34:00,
2013-05-18 10:39:00,57.3,55.3,29.96,ESE,112,13.8,13.8,93,0.05,CLR,,0.79,WeatherDisplay:10.37,2013-05-18 15:39:00,
2013-05-18 10:44:00,57.6,55.6,29.95,SE,138,9.2,9.2,93,0.05,RA,,0.80,WeatherDisplay:10.37,2013-05-18 15:44:00,
2013-05-18 10:49:00,57.8,55.8,29.96,South,184,13.8,13.8,93,0.05,RA,,0.80,WeatherDisplay:10.37,2013-05-18 15:49:00,
2013-05-18 10:54:00,58.0,56.0,29.96,South,173,6.0,6.0,93,0.04,CLR,,0.80,WeatherDisplay:10.37,2013-05-18 15:54:00,
2013-05-18 10:59:00,58.2,56.2,29.95,SE,144,9.2,9.2,93,0.05,RA,,0.81,WeatherDisplay:10.37,2013-05-18 15:59:00,
2013-05-18 11:04:00,58.4,56.4,29.95,SE,132,5.8,5.8,93,0.04,RA,,0.81,WeatherDisplay:10.37,2013-05-18 16:04:00,
2013-05-18 11:09:00,59.0,57.0,29.95,SE,134,3.5,3.5,93,0.04,CLR,,0.81,WeatherDisplay:10.37,2013-05-18 16:09:00,
2013-05-18 11:14:00,59.0,57.0,29.95,SSE,160,4.6,4.6,93,0.04,CLR,,0.81,WeatherDisplay:10.37,2013-05-18 16:14:00,
2013-05-18 11:19:00,59.3,57.6,29.95,SE,128,6.9,6.9,94,0.04,RA,,0.82,WeatherDisplay:10.37,2013-05-18 16:19:00,
2013-05-18 11:24:00,59.8,57.8,29.94,South,172,6.9,6.9,93,0.04,RA,,0.82,WeatherDisplay:10.37,2013-05-18 16:24:00,
2013-05-18 11:29:00,60.2,58.2,29.94,SE,132,12.7,12.7,93,0.03,CLR,,0.82,WeatherDisplay:10.37,2013-05-18 16:29:00,
2013-05-18 11:34:00,60.7,59.0,29.94,SSE,159,9.0,9.0,94,0.04,RA,,0.83,WeatherDisplay:10.37,2013-05-18 16:34:00,
2013-05-18 11:39:00,61.1,59.1,29.94,SSE,167,12.7,12.7,93,0.04,RA,,0.83,WeatherDisplay:10.37,2013-05-18 16:39:00,
2013-05-18 11:44:00,61.6,59.6,29.94,SSE,167,11.5,11.5,93,0.03,,,0.83,WeatherDisplay:10.37,2013-05-18 16:44:00,
2013-05-18 11:49:00,62.0,60.0,29.94,ESE,113,11.5,11.5,93,0.04,RA,,0.84,WeatherDisplay:10.37,2013-05-18 16:49:00,
2013-05-18 11:54:00,62.2,60.2,29.93,SSE,161,10.4,10.4,93,0.04,RA,,0.84,WeatherDisplay:10.37,2013-05-18 16:54:00,
2013-05-18 11:59:00,62.5,60.4,29.94,South,191,11.5,11.5,93,0.03,CLR,,0.84,WeatherDisplay:10.37,2013-05-18 16:59:00,
2013-05-18 12:04:00,63.0,60.6,29.93,SSE,164,11.5,11.5,92,0.04,RA,,0.85,WeatherDisplay:10.37,2013-05-18 17:04:00,
2013-05-18 12:09:00,63.4,60.7,29.93,SE,145,10.4,10.4,91,0.04,RA,,0.85,WeatherDisplay:10.37,2013-05-18 17:09:00,
2013-05-18 12:14:00,63.5,60.5,29.93,ESE,114,9.2,9.2,90,0.04,,,0.85,WeatherDisplay:10.37,2013-05-18 17:14:00,
2013-05-18 12:19:00,63.7,60.1,29.93,South,182,11.5,11.5,88,0.03,CLR,,0.85,WeatherDisplay:10.37,2013-05-18 17:19:00,
2013-05-18 12:24:00,63.8,60.2,29.93,ESE,122,3.5,3.5,88,0.03,CLR,,0.86,WeatherDisplay:10.37,2013-05-18 17:24:00,
2013-05-18 12:29:00,63.9,60.0,29.92,SE,132,12.7,12.7,87,0.04,RA,,0.86,WeatherDisplay:10.37,2013-05-18 17:29:00,
2013-05-18 12:34:00,64.2,60.2,29.92,SSW,202,10.4,10.4,87,0.03,RA,,0.86,WeatherDisplay:10.37,2013-05-18 17:34:00,
2013-05-18 12:39:00,64.9,60.6,29.91,SE,130,3.5,3.5,86,0.03,CLR,,0.86,WeatherDisplay:10.37,2013-05-18 17:39:00,
2013-05-18 12:44:00,65.7,61.1,29.91,SE,130,1.2,1.2,85,0.04,RA,,0.87,WeatherDisplay:10.37,2013-05-18 17:44:00,
2013-05-18 12:49:00,66.7,61.7,29.91,SSE,148,15.0,15.0,84,0.03,RA,,0.87,WeatherDisplay:10.37,2013-05-18 17:49:00,
2013-05-18 12:54:00,67.7,62.0,29.90,SE,134,12.7,12.7,82,0.03,,,0.87,WeatherDisplay:10.37,2013-05-18 17:54:00,
2013-05-18 12:59:00,68.4,62.0,29.90,SE,138,17.3,17.3,80,0.03,CLR,,0.87,WeatherDisplay:10.37,2013-05-18 17:59:00,
2013-05-18 13:04:00,68.9,62.1,29.90,SE,129,15.0,15.0,79,0.03,RA,,0.88,WeatherDisplay:10.37,2013-05-18 18:04:00,
2013-05-18 13:09:00,69.2,62.4,29.90,SSE,156,12.0,12.0,79,0.03,RA,,0.88,WeatherDisplay:10.37,2013-05-18 18:09:00,
2013-05-18 13:14:00,69.7,62.9,29.90,SE,146,3.0,3.0,79,0.03,CLR,,0.88,WeatherDisplay:10.37,2013-05-18 18:14:00,
2013-05-18 13:19:00,70.5,63.3,29.90,SW,223,5.8,5.8,78,0.03,CLR,,0.88,WeatherDisplay:10.37,2013-05-18 18:19:00,
2013-05-18 13:24:00,71.3,63.7,29.90,South,172,9.2,9.2,77,0.04,RA,,0.89,WeatherDisplay:10.37,2013-05-18 18:24:00,
2013-05-18 13:29:00,72.0,63.6,29.89,South,173,3.5,3.5,75,0.03,RA,,0.89,WeatherDisplay:10.37,2013-05-18 18:29:00,
2013-05-18 13:34:00,72.9,63.7,29.89,SSE,160,9.2,9.2,73,0.03,,,0.89,WeatherDisplay:10.37,2013-05-18 18:34:00,
2013-05-18 13:39:00,73.3,64.1,29.89,South,171,6.9,0.0,73,0.03,CLR,,0.89,WeatherDisplay:10.37,2013-05-18 18:39:00,
2013-05-18 13:44:00,73.8,63.8,29.89,South,173,15.0,15.0,71,0.02,CLR,,0.89,WeatherDisplay:10.37,2013-05-18 18:44:00,
2013-05-18 13:49:00,73.8,63.8,29.89,SSE,152,11.5,11.5,71,0.03,RA,,0.90,WeatherDisplay:10.37,2013-05-18 18:49:00,
2013-05-18 13:54:00,73.7,63.7,29.89,SSE,161,16.1,16.1,71,0.03,RA,,0.90,WeatherDisplay:10.37,2013-05-18 18:54:00,
2013-05-18 13:59:00,73.9,63.9,29.89,South,191,11.5,11.5,71,0.03,CLR,,0.90,WeatherDisplay:10.37,2013-05-18 18:59:00,
2013-05-18 14:04:00,73.9,63.9,29.89,SSE,153,10.0,10.0,71,0.02,CLR,,0.90,WeatherDisplay:10.37,2013-05-18 19:04:00,
2013-05-18 14:09:00,74.4,64.4,29.88,South,182,9.2,9.2,71,0.02,CLR,,0.90,WeatherDisplay:10.37,2013-05-18 19:09:00,
2013-05-18 14:14:00,75.1,64.6,29.88,SE,141,11.5,11.5,70,0.02,CLR,,0.90,WeatherDisplay:10.37,2013-05-18 19:14:00,
2013-05-18 14:19:00,75.8,65.3,29.87,South,186,13.8,13.8,70,0.02,CLR,,0.90,WeatherDisplay:10.37,2013-05-18 19:19:00,
2013-05-18 14:24:00,75.7,65.2,29.87,SE,144,13.8,13.8,70,0.02,RA,,0.91,WeatherDisplay:10.37,2013-05-18 19:24:00,
2013-05-18 14:29:00,76.1,65.6,29.87,SE,128,6.9,6.9,70,0.02,RA,,0.91,WeatherDisplay:10.37,2013-05-18 19:29:00,
2013-05-18 14:34:00,76.5,65.6,29.87,SW,227,12.7,12.8,69,0.02,CLR,,0.91,WeatherDisplay:10.37,2013-05-18 19:34:00,
2013-05-18 14:39:00,76.7,65.3,29.86,South,182,10.4,10.4,68,0.02,CLR,,0.91,WeatherDisplay:10.37,2013-05-18 19:39:00,
2013-05-18 14:44:00,76.7,65.3,29.86,SSE,150,10.4,10.4,68,0.02,CLR,,0.91,WeatherDisplay:10.37,2013-05-18 19:44:00,
2013-05-18 14:49:00,77.6,64.0,29.86,SSE,168,16.1,16.1,63,0.01,CLR,,0.91,WeatherDisplay:10.37,2013-05-18 19:49:00,
2013-05-18 14:54:00,78.0,63.9,29.86,South,183,18.4,18.4,62,0.02,RA,,0.92,WeatherDisplay:10.37,2013-05-18 19:54:00,
2013-05-18 14:59:00,77.8,63.7,29.86,SSE,157,19.6,19.6,62,0.02,RA,,0.92,WeatherDisplay:10.37,2013-05-18 19:59:00,
2013-05-18 15:04:00,78.1,63.6,29.86,SSE,153,13.0,13.0,61,0.02,,,0.92,WeatherDisplay:10.37,2013-05-18 20:04:00,
2013-05-18 15:09:00,78.2,64.1,29.86,SSE,147,16.1,16.1,62,0.02,CLR,,0.92,WeatherDisplay:10.37,2013-05-18 20:09:00,
2013-05-18 15:14:00,78.0,63.9,29.85,SSW,205,18.4,18.4,62,0.02,CLR,,0.92,WeatherDisplay:10.37,2013-05-18 20:14:00,
2013-05-18 15:19:00,77.6,63.5,29.85,SE,138,16.1,16.1,62,0.02,CLR,,0.92,WeatherDisplay:10.37,2013-05-18 20:19:00,
2013-05-18 15:24:00,78.0,63.9,29.85,South,190,13.8,13.8,62,0.01,CLR,,0.92,WeatherDisplay:10.37,2013-05-18 20:24:00,
2013-05-18 15:29:00,78.5,64.4,29.85,SSE,165,11.5,11.5,62,0.01,CLR,,0.92,WeatherDisplay:10.37,2013-05-18 20:29:00,
2013-05-18 15:34:00,79.4,64.3,29.85,SSE,165,5.8,5.8,60,0.01,CLR,,0.92,WeatherDisplay:10.37,2013-05-18 20:34:00,
2013-05-18 18:46:00,78.7,63.2,29.85,SE,142,0.0,0.0,59,0.01,RA,,0.96,WeatherDisplay:10.37,2013-05-18 23:46:00,
2013-05-18 18:57:00,78.7,63.2,29.85,SSE,163,0.0,0.0,59,0.01,CLR,,0.96,WeatherDisplay:10.37,2013-05-18 23:57:00,
2013-05-18 19:16:00,78.7,63.6,29.84,SSE,164,0.0,0.0,60,0.01,CLR,,0.96,WeatherDisplay:10.37,2013-05-19 00:16:00,
2013-05-18 19:46:00,77.6,63.1,29.83,SE,135,0.0,0.0,61,0.00,CLR,,0.96,WeatherDisplay:10.37,2013-05-19 00:46:00,
2013-05-18 20:16:00,75.8,63.6,29.82,ESE,122,0.0,0.0,66,0.00,CLR,,0.96,WeatherDisplay:10.37,2013-05-19 01:16:00,
2013-05-18 20:46:00,74.1,62.9,29.81,SE,126,0.0,0.0,68,0.01,CLR,,0.97,WeatherDisplay:10.37,2013-05-19 01:46:00,
2013-05-18 21:16:00,73.5,63.1,29.80,ESE,117,8.1,8.1,70,0.01,CLR,,0.97,WeatherDisplay:10.37,2013-05-19 02:16:00,
2013-05-18 22:16:00,71.5,62.8,29.80,ESE,115,6.9,6.9,74,0.00,CLR,,0.97,WeatherDisplay:10.37,2013-05-19 03:16:00,
2013-05-18 22:46:00,71.2,62.9,29.80,ESE,117,0.0,0.0,75,0.00,CLR,,0.97,WeatherDisplay:10.37,2013-05-19 03:46:00,
2013-05-18 23:47:00,70.4,62.5,29.77,ESE,116,3.5,3.5,76,0.00,CLR,,0.97,WeatherDisplay:10.37,2013-05-19 04:47:00,